Theta_e
338 339 340 342 342 341 341 339 338 337 337 335 335 333 333 332 332 331 330 329 329 327 326 326 326 326 319
335 332 333 335 337 337 335 333 332 332 333 332 331 333 331 331 330 329 328 328 328 327 325 326 325 325 320
334 327 328 330 331 330 329 328 326 328 329 329 328 331 331 330 329 328 326 325 327 327 326 325 325 321 321
332 331 329 330 330 330 329 327 328 324 324 325 323 327 329 329 329 326 326 327 324 322 321 323 322 322 321
328 327 326 327 328 329 329 327 326 323 320 320 318 318 318 320 321 323 323 323 323 322 322 322 322 322 321
327 326 324 323 325 326 327 327 325 324 323 322 323 324 323 323 323 323 322 323 323 323 323 323 323 323 322
326 325 324 323 323 324 326 325 325 323 322 322 323 323 323 323 323 323 323 323 323 323 323 322 323 322 321
324 323 322 323 323 322 323 325 326 324 323 323 323 324 324 324 324 323 323 321 321 322 321 324 322 321 320
324 324 322 323 323 322 325 326 325 325 323 323 323 323 326 325 324 324 323 321 320 321 321 322 321 321 319
325 323 323 323 323 324 325 325 326 326 324 323 324 325 325 324 323 322 321 319 321 318 319 317 319 320 316
326 325 323 323 322 324 326 326 326 326 325 323 322 325 326 322 321 321 318 322 319 317 315 315 316 316 313
326 325 324 323 323 324 325 327 327 325 325 323 322 322 321 320 320 319 321 322 320 316 317 316 314 314 311
325 322 321 321 322 323 326 327 327 325 324 323 322 322 322 320 320 321 323 320 318 315 313 312 311 309 306
325 325 322 322 322 324 327 327 327 325 325 324 323 322 323 321 322 322 322 318 318 314 310 309 304 305 304
324 324 323 324 325 325 325 326 327 326 325 324 324 324 325 323 322 321 322 319 316 311 311 308 301 299 299
323 323 323 323 323 325 326 327 327 327 326 326 325 324 324 325 324 323 322 320 318 311 308 308 303 301 294
Wind_Speed
10 13 13 13 14 15 15 13 12 11 12 12 11 11 11 11 11 11 10 10 10 9 8 8 11 10 3
7 11 12 13 14 13 13 12 11 10 10 10 9 9 10 9 9 8 7 7 7 6 4 4 8 9 4
8 8 9 12 12 11 9 11 11 5 7 7 7 8 8 8 7 5 3 2 2 1 2 4 7 3 4
8 6 6 7 6 6 6 6 3 6 5 6 5 6 6 5 5 3 2 3 4 3 2 3 2 4 3
8 4 3 3 4 5 7 4 6 5 4 4 3 3 3 5 2 3 2 1 4 4 4 3 4 4 3
4 5 5 3 3 3 4 4 3 3 4 4 3 4 3 2 2 0 2 0 2 1 2 4 4 3 3
5 3 5 5 4 4 5 4 4 4 3 2 3 3 3 2 2 1 2 0 1 1 1 2 3 4 6
6 4 4 4 5 5 5 5 4 5 4 4 3 3 3 1 2 2 2 1 3 2 2 1 2 5 6
8 6 4 4 4 4 5 7 6 5 5 5 4 3 3 3 1 1 2 1 3 3 2 3 3 6 6
6 6 5 5 5 4 3 4 6 6 6 4 4 4 4 3 2 1 2 2 1 2 1 3 3 6 7
7 6 6 8 6 5 5 5 7 5 5 4 3 3 4 1 2 2 0 2 1 3 3 2 4 5 6
5 5 4 5 4 5 5 6 9 6 6 4 3 5 4 3 2 2 3 2 2 2 2 3 5 4 5
7 5 4 5 4 4 5 8 9 8 8 6 5 5 5 5 5 5 2 2 2 2 2 3 3 6 7
9 7 4 5 4 4 3 5 6 7 7 7 6 5 5 4 5 5 4 2 2 2 2 2 2 1 3
12 7 4 4 3 4 4 4 5 7 8 7 7 5 5 5 4 5 5 6 4 1 3 3 2 4 3
14 11 14 11 9 7 7 6 7 9 9 10 9 8 7 5 6 5 4 3 4 4 2 1 2 3 4
Wind_Direction
94 93 84 77 96 96 98 92 89 87 86 84 88 93 94 93 86 77 75 75 71 60 38 9 356 349 42
103 94 91 86 94 95 98 99 93 96 101 101 87 88 94 93 87 80 74 73 73 65 21 344 327 315 47
122 114 100 106 110 112 121 141 144 152 112 84 78 89 100 99 96 87 77 102 113 172 244 337 331 1 62
133 158 136 136 150 141 156 179 214 85 102 103 113 116 116 124 123 130 233 273 255 236 269 298 3 353 39
145 158 140 175 170 161 179 158 111 116 132 151 153 163 170 196 207 200 236 305 26 25 9 11 13 22 38
166 143 167 145 141 144 147 149 134 162 171 170 162 167 190 160 163 39 109 218 359 20 44 6 25 31 38
146 192 150 158 154 168 142 170 169 142 180 164 160 168 146 188 151 159 118 185 293 57 318 89 24 33 60
160 170 161 147 173 147 163 178 183 158 173 157 179 175 178 156 107 74 65 343 296 188 300 121 90 71 67
168 155 161 170 148 170 170 169 179 177 178 168 175 172 183 115 104 215 273 308 330 13 339 45 81 95 81
176 159 173 171 157 187 176 155 180 195 169 191 172 191 142 154 185 199 60 320 320 309 48 20 4 95 90
187 173 185 165 181 186 168 169 187 187 198 172 179 126 122 91 73 97 258 224 350 3 16 328 79 102 97
207 177 182 170 194 182 179 176 173 174 192 185 167 158 146 163 197 203 214 220 203 100 349 68 96 91 99
195 185 182 193 186 214 190 184 170 170 178 182 187 188 183 187 195 200 227 221 157 79 33 65 71 103 91
189 193 182 181 197 198 186 180 170 170 175 182 186 197 198 189 198 194 200 187 109 86 140 135 142 348 79
193 184 192 175 184 181 195 189 194 181 182 186 190 191 196 192 199 192 198 188 158 131 113 160 144 202 131
191 190 195 199 198 198 193 189 193 194 193 191 187 190 193 194 203 192 174 188 160 162 108 166 97 147 162